Year,Month,Day,Hour,Minute,Value (Times are PST for temperature in C)
2015,06,15,00,00,14.80
2015,06,15,00,01,14.80
2015,06,15,00,02,14.80
2015,06,15,00,03,14.80
2015,06,15,00,04,14.80
2015,06,15,00,05,14.80
2015,06,15,00,06,14.80
2015,06,15,00,07,14.80
2015,06,15,00,08,14.80
2015,06,15,00,09,14.80
2015,06,15,00,10,14.80
2015,06,15,00,11,14.80
2015,06,15,00,12,14.80
2015,06,15,00,13,14.80
2015,06,15,00,14,14.80
2015,06,15,00,15,14.80
2015,06,15,00,16,14.80
2015,06,15,00,17,14.80
2015,06,15,00,18,14.80
2015,06,15,00,19,14.80
2015,06,15,00,20,14.80
2015,06,15,00,21,14.80
2015,06,15,00,22,14.80
2015,06,15,00,23,14.80
2015,06,15,00,24,14.80
2015,06,15,00,25,14.80
2015,06,15,00,26,14.80
2015,06,15,00,27,14.80
2015,06,15,00,28,14.80
2015,06,15,00,29,14.80
2015,06,15,00,30,14.80
2015,06,15,00,31,14.90
2015,06,15,00,32,14.90
2015,06,15,00,33,14.90
2015,06,15,00,34,14.90
2015,06,15,00,35,14.90
2015,06,15,00,36,14.90
2015,06,15,00,37,14.90
2015,06,15,00,38,14.90
2015,06,15,00,39,14.90
2015,06,15,00,40,14.90
2015,06,15,00,41,14.90
2015,06,15,00,42,14.90
2015,06,15,00,43,14.90
2015,06,15,00,44,14.90
2015,06,15,00,45,14.80
2015,06,15,00,46,14.80
2015,06,15,00,47,14.80
2015,06,15,00,48,14.80
2015,06,15,00,49,14.80
2015,06,15,00,50,14.80
2015,06,15,00,51,14.80
2015,06,15,00,52,14.80
2015,06,15,00,53,14.80
2015,06,15,00,54,14.80
2015,06,15,00,55,14.80
2015,06,15,00,56,14.80
2015,06,15,00,57,14.80
2015,06,15,00,58,14.80
2015,06,15,00,59,14.80
2015,06,15,01,00,14.80
2015,06,15,01,01,14.80
2015,06,15,01,02,14.80
2015,06,15,01,03,14.80
2015,06,15,01,04,14.80
2015,06,15,01,05,14.90
2015,06,15,01,06,14.90
2015,06,15,01,07,14.90
2015,06,15,01,08,14.90
2015,06,15,01,09,14.90
2015,06,15,01,10,15.00
2015,06,15,01,11,15.00
2015,06,15,01,12,15.00
2015,06,15,01,13,15.00
2015,06,15,01,14,15.00
2015,06,15,01,15,15.00
2015,06,15,01,16,15.00
2015,06,15,01,17,15.10
2015,06,15,01,18,15.10
2015,06,15,01,19,15.10
2015,06,15,01,20,15.10
2015,06,15,01,21,15.10
2015,06,15,01,22,15.10
2015,06,15,01,23,15.10
2015,06,15,01,24,15.10
2015,06,15,01,25,15.20
2015,06,15,01,26,15.10
2015,06,15,01,27,15.10
2015,06,15,01,28,15.20
2015,06,15,01,29,15.20
2015,06,15,01,30,15.10
2015,06,15,01,31,15.20
2015,06,15,01,32,15.20
2015,06,15,01,33,15.20
2015,06,15,01,34,15.20
2015,06,15,01,35,15.20
2015,06,15,01,36,15.20
2015,06,15,01,37,15.20
2015,06,15,01,38,15.20
2015,06,15,01,39,15.20
2015,06,15,01,40,15.20
2015,06,15,01,41,15.10
2015,06,15,01,42,15.10
2015,06,15,01,43,15.10
2015,06,15,01,44,15.00
2015,06,15,01,45,15.00
2015,06,15,01,46,15.00
2015,06,15,01,47,15.00
2015,06,15,01,48,14.90
2015,06,15,01,49,14.90
2015,06,15,01,50,14.90
2015,06,15,01,51,14.90
2015,06,15,01,52,14.90
2015,06,15,01,53,14.90
2015,06,15,01,54,14.90
2015,06,15,01,55,15.00
2015,06,15,01,56,15.00
2015,06,15,01,57,15.00
2015,06,15,01,58,14.90
2015,06,15,01,59,14.90
2015,06,15,02,00,14.90
2015,06,15,02,01,14.90
2015,06,15,02,02,14.80
2015,06,15,02,03,14.80
2015,06,15,02,04,14.80
2015,06,15,02,05,14.80
2015,06,15,02,06,14.80
2015,06,15,02,07,14.80
2015,06,15,02,08,14.80
2015,06,15,02,09,14.80
2015,06,15,02,10,14.80
2015,06,15,02,11,14.80
2015,06,15,02,12,14.80
2015,06,15,02,13,14.90
2015,06,15,02,14,14.90
2015,06,15,02,15,14.90
2015,06,15,02,16,14.90
2015,06,15,02,17,14.90
2015,06,15,02,18,14.90
2015,06,15,02,19,14.90
2015,06,15,02,20,14.80
2015,06,15,02,21,14.80
2015,06,15,02,22,14.80
2015,06,15,02,23,14.80
2015,06,15,02,24,14.80
2015,06,15,02,25,14.80
2015,06,15,02,26,14.70
2015,06,15,02,27,14.70
2015,06,15,02,28,14.70
2015,06,15,02,29,14.70
2015,06,15,02,30,14.70
2015,06,15,02,31,14.70
2015,06,15,02,32,14.70
2015,06,15,02,33,14.60
2015,06,15,02,34,14.60
2015,06,15,02,35,14.60
2015,06,15,02,36,14.70
2015,06,15,02,37,14.70
2015,06,15,02,38,14.70
2015,06,15,02,39,14.60
2015,06,15,02,40,14.60
2015,06,15,02,41,14.60
2015,06,15,02,42,14.60
2015,06,15,02,43,14.50
2015,06,15,02,44,14.50
2015,06,15,02,45,14.50
2015,06,15,02,46,14.50
2015,06,15,02,47,14.50
2015,06,15,02,48,14.50
2015,06,15,02,49,14.40
2015,06,15,02,50,14.40
2015,06,15,02,51,14.40
2015,06,15,02,52,14.40
2015,06,15,02,53,14.40
2015,06,15,02,54,14.50
2015,06,15,02,55,14.50
2015,06,15,02,56,14.40
2015,06,15,02,57,14.40
2015,06,15,02,58,14.40
2015,06,15,02,59,14.40
2015,06,15,03,00,14.40
2015,06,15,03,01,14.30
2015,06,15,03,02,14.30
2015,06,15,03,03,14.30
2015,06,15,03,04,14.30
2015,06,15,03,05,14.30
2015,06,15,03,06,14.30
2015,06,15,03,07,14.20
2015,06,15,03,08,14.20
2015,06,15,03,09,14.20
2015,06,15,03,10,14.20
2015,06,15,03,11,14.20
2015,06,15,03,12,14.20
2015,06,15,03,13,14.10
2015,06,15,03,14,14.10
2015,06,15,03,15,14.10
2015,06,15,03,16,14.10
2015,06,15,03,17,14.10
2015,06,15,03,18,14.10
2015,06,15,03,19,14.10
2015,06,15,03,20,14.10
2015,06,15,03,21,14.10
2015,06,15,03,22,14.10
2015,06,15,03,23,14.10
2015,06,15,03,24,14.10
2015,06,15,03,25,14.10
2015,06,15,03,26,14.00
2015,06,15,03,27,14.00
2015,06,15,03,28,14.00
2015,06,15,03,29,14.00
2015,06,15,03,30,14.00
2015,06,15,03,31,14.00
2015,06,15,03,32,14.00
2015,06,15,03,33,13.90
2015,06,15,03,34,13.90
2015,06,15,03,35,13.90
2015,06,15,03,36,13.80
2015,06,15,03,37,13.80
2015,06,15,03,38,13.80
2015,06,15,03,39,13.80
2015,06,15,03,40,13.70
2015,06,15,03,41,13.70
2015,06,15,03,42,13.70
2015,06,15,03,43,13.70
2015,06,15,03,44,13.70
2015,06,15,03,45,13.70
2015,06,15,03,46,13.70
2015,06,15,03,47,13.70
2015,06,15,03,48,13.70
2015,06,15,03,49,13.70
2015,06,15,03,50,13.70
2015,06,15,03,51,13.70
2015,06,15,03,52,13.70
2015,06,15,03,53,13.70
2015,06,15,03,54,13.70
2015,06,15,03,55,13.70
2015,06,15,03,56,13.70
2015,06,15,03,57,13.70
2015,06,15,03,58,13.70
2015,06,15,03,59,13.70
2015,06,15,04,00,13.80
2015,06,15,04,01,13.80
2015,06,15,04,02,13.80
2015,06,15,04,03,13.80
2015,06,15,04,04,13.80
2015,06,15,04,05,13.80
2015,06,15,04,06,13.70
2015,06,15,04,07,13.70
2015,06,15,04,08,13.70
2015,06,15,04,09,13.70
2015,06,15,04,10,13.70
2015,06,15,04,11,13.60
2015,06,15,04,12,13.60
2015,06,15,04,13,13.60
2015,06,15,04,14,13.50
2015,06,15,04,15,13.50
2015,06,15,04,16,13.50
2015,06,15,04,17,13.50
2015,06,15,04,18,13.50
2015,06,15,04,19,13.50
2015,06,15,04,20,13.40
2015,06,15,04,21,13.40
2015,06,15,04,22,13.40
2015,06,15,04,23,13.40
2015,06,15,04,24,13.40
2015,06,15,04,25,13.40
2015,06,15,04,26,13.40
2015,06,15,04,27,13.40
2015,06,15,04,28,13.40
2015,06,15,04,29,13.30
2015,06,15,04,30,13.30
2015,06,15,04,31,13.40
2015,06,15,04,32,13.40
2015,06,15,04,33,13.40
2015,06,15,04,34,13.30
2015,06,15,04,35,13.30
2015,06,15,04,36,13.30
2015,06,15,04,37,13.30
2015,06,15,04,38,13.30
2015,06,15,04,39,13.30
2015,06,15,04,40,13.30
2015,06,15,04,41,13.40
2015,06,15,04,42,13.40
2015,06,15,04,43,13.40
2015,06,15,04,44,13.40
2015,06,15,04,45,13.40
2015,06,15,04,46,13.40
2015,06,15,04,47,13.30
2015,06,15,04,48,13.30
2015,06,15,04,49,13.30
2015,06,15,04,50,13.30
2015,06,15,04,51,13.30
2015,06,15,04,52,13.30
2015,06,15,04,53,13.30
2015,06,15,04,54,13.30
2015,06,15,04,55,13.30
2015,06,15,04,56,13.30
2015,06,15,04,57,13.30
2015,06,15,04,58,13.30
2015,06,15,04,59,13.40
2015,06,15,05,00,13.40
2015,06,15,05,01,13.40
2015,06,15,05,02,13.40
2015,06,15,05,03,13.40
2015,06,15,05,04,13.40
2015,06,15,05,05,13.40
2015,06,15,05,06,13.40
2015,06,15,05,07,13.40
2015,06,15,05,08,13.40
2015,06,15,05,09,13.40
2015,06,15,05,10,13.40
2015,06,15,05,11,13.40
2015,06,15,05,12,13.40
2015,06,15,05,13,13.40
2015,06,15,05,14,13.40
2015,06,15,05,15,13.50
2015,06,15,05,16,13.50
2015,06,15,05,17,13.50
2015,06,15,05,18,13.50
2015,06,15,05,19,13.50
2015,06,15,05,20,13.50
2015,06,15,05,21,13.50
2015,06,15,05,22,13.50
2015,06,15,05,23,13.50
2015,06,15,05,24,13.60
2015,06,15,05,25,13.50
2015,06,15,05,26,13.50
2015,06,15,05,27,13.50
2015,06,15,05,28,13.50
2015,06,15,05,29,13.50
2015,06,15,05,30,13.50
2015,06,15,05,31,13.50
2015,06,15,05,32,13.50
2015,06,15,05,33,13.50
2015,06,15,05,34,13.50
2015,06,15,05,35,13.60
2015,06,15,05,36,13.60
2015,06,15,05,37,13.60
2015,06,15,05,38,13.60
2015,06,15,05,39,13.70
2015,06,15,05,40,13.70
2015,06,15,05,41,13.70
2015,06,15,05,42,13.70
2015,06,15,05,43,13.70
2015,06,15,05,44,13.70
2015,06,15,05,45,13.80
2015,06,15,05,46,13.80
2015,06,15,05,47,13.80
2015,06,15,05,48,13.80
2015,06,15,05,49,13.80
2015,06,15,05,50,13.80
2015,06,15,05,51,13.90
2015,06,15,05,52,13.90
2015,06,15,05,53,14.00
2015,06,15,05,54,14.10
2015,06,15,05,55,14.10
2015,06,15,05,56,14.20
2015,06,15,05,57,14.20
2015,06,15,05,58,14.20
2015,06,15,05,59,14.20
2015,06,15,06,00,14.20
2015,06,15,06,01,14.20
2015,06,15,06,02,14.30
2015,06,15,06,03,14.30
2015,06,15,06,04,14.30
2015,06,15,06,05,14.30
2015,06,15,06,06,14.30
2015,06,15,06,07,14.30
2015,06,15,06,08,14.30
2015,06,15,06,09,14.40
2015,06,15,06,10,14.40
2015,06,15,06,11,14.50
2015,06,15,06,12,14.50
2015,06,15,06,13,14.50
2015,06,15,06,14,14.60
2015,06,15,06,15,14.60
2015,06,15,06,16,14.70
2015,06,15,06,17,14.70
2015,06,15,06,18,14.70
2015,06,15,06,19,14.60
2015,06,15,06,20,14.60
2015,06,15,06,21,14.60
2015,06,15,06,22,14.60
2015,06,15,06,23,14.60
2015,06,15,06,24,14.60
2015,06,15,06,25,14.60
2015,06,15,06,26,14.70
2015,06,15,06,27,14.80
2015,06,15,06,28,14.80
2015,06,15,06,29,14.80
2015,06,15,06,30,14.80
2015,06,15,06,31,14.90
2015,06,15,06,32,14.90
2015,06,15,06,33,14.90
2015,06,15,06,34,15.00
2015,06,15,06,35,15.00
2015,06,15,06,36,15.10
2015,06,15,06,37,15.10
2015,06,15,06,38,15.10
2015,06,15,06,39,15.20
2015,06,15,06,40,15.20
2015,06,15,06,41,15.30
2015,06,15,06,42,15.30
2015,06,15,06,43,15.40
2015,06,15,06,44,15.40
2015,06,15,06,45,15.50
2015,06,15,06,46,15.60
2015,06,15,06,47,15.70
2015,06,15,06,48,15.80
2015,06,15,06,49,15.80
2015,06,15,06,50,15.80
2015,06,15,06,51,15.90
2015,06,15,06,52,15.90
2015,06,15,06,53,16.00
2015,06,15,06,54,16.10
2015,06,15,06,55,16.10
2015,06,15,06,56,16.20
2015,06,15,06,57,16.30
2015,06,15,06,58,16.40
2015,06,15,06,59,16.50
2015,06,15,07,00,16.60
2015,06,15,07,01,16.60
2015,06,15,07,02,16.60
2015,06,15,07,03,16.70
2015,06,15,07,04,16.70
2015,06,15,07,05,16.80
2015,06,15,07,06,16.90
2015,06,15,07,07,16.90
2015,06,15,07,08,16.90
2015,06,15,07,09,16.80
2015,06,15,07,10,16.70
2015,06,15,07,11,16.70
2015,06,15,07,12,16.70
2015,06,15,07,13,16.80
2015,06,15,07,14,16.80
2015,06,15,07,15,16.80
2015,06,15,07,16,16.80
2015,06,15,07,17,16.80
2015,06,15,07,18,16.90
2015,06,15,07,19,16.90
2015,06,15,07,20,16.90
2015,06,15,07,21,17.00
2015,06,15,07,22,17.00
2015,06,15,07,23,17.00
2015,06,15,07,24,17.00
2015,06,15,07,25,17.00
2015,06,15,07,26,17.00
2015,06,15,07,27,17.00
2015,06,15,07,28,17.10
2015,06,15,07,29,17.10
2015,06,15,07,30,17.10
2015,06,15,07,31,17.10
2015,06,15,07,32,17.10
2015,06,15,07,33,17.00
2015,06,15,07,34,17.10
2015,06,15,07,35,17.10
2015,06,15,07,36,17.00
2015,06,15,07,37,17.10
2015,06,15,07,38,17.10
2015,06,15,07,39,17.20
2015,06,15,07,40,17.30
2015,06,15,07,41,17.40
2015,06,15,07,42,17.50
2015,06,15,07,43,17.50
2015,06,15,07,44,17.50
2015,06,15,07,45,17.50
2015,06,15,07,46,17.50
2015,06,15,07,47,17.60
2015,06,15,07,48,17.60
2015,06,15,07,49,17.70
2015,06,15,07,50,17.80
2015,06,15,07,51,17.90
2015,06,15,07,52,18.00
2015,06,15,07,53,18.10
2015,06,15,07,54,18.20
2015,06,15,07,55,18.20
2015,06,15,07,56,18.20
2015,06,15,07,57,18.20
2015,06,15,07,58,18.20
2015,06,15,07,59,18.20
2015,06,15,08,00,18.20
2015,06,15,08,01,18.20
2015,06,15,08,02,18.20
2015,06,15,08,03,18.10
2015,06,15,08,04,18.10
2015,06,15,08,05,18.10
2015,06,15,08,06,18.10
2015,06,15,08,07,18.20
2015,06,15,08,08,18.20
2015,06,15,08,09,18.30
2015,06,15,08,10,18.30
2015,06,15,08,11,18.30
2015,06,15,08,12,18.40
2015,06,15,08,13,18.50
2015,06,15,08,14,18.60
2015,06,15,08,15,18.60
2015,06,15,08,16,18.60
2015,06,15,08,17,18.60
2015,06,15,08,18,18.60
2015,06,15,08,19,18.60
2015,06,15,08,20,18.60
2015,06,15,08,21,18.60
2015,06,15,08,22,18.70
2015,06,15,08,23,18.70
2015,06,15,08,24,18.60
2015,06,15,08,25,18.60
2015,06,15,08,26,18.60
2015,06,15,08,27,18.60
2015,06,15,08,28,18.50
2015,06,15,08,29,18.40
2015,06,15,08,30,18.20
2015,06,15,08,31,18.20
2015,06,15,08,32,18.20
2015,06,15,08,33,18.20
2015,06,15,08,34,18.20
2015,06,15,08,35,18.20
2015,06,15,08,36,18.20
2015,06,15,08,37,18.20
2015,06,15,08,38,18.20
2015,06,15,08,39,18.00
2015,06,15,08,40,17.90
2015,06,15,08,41,17.90
2015,06,15,08,42,17.80
2015,06,15,08,43,17.90
2015,06,15,08,44,18.10
2015,06,15,08,45,18.20
2015,06,15,08,46,18.20
2015,06,15,08,47,18.20
2015,06,15,08,48,18.10
2015,06,15,08,49,17.90
2015,06,15,08,50,17.90
2015,06,15,08,51,17.90
2015,06,15,08,52,17.90
2015,06,15,08,53,17.90
2015,06,15,08,54,17.90
2015,06,15,08,55,18.00
2015,06,15,08,56,18.10
2015,06,15,08,57,18.10
2015,06,15,08,58,18.10
2015,06,15,08,59,18.10
2015,06,15,09,00,18.10
2015,06,15,09,01,18.20
2015,06,15,09,02,18.20
2015,06,15,09,03,18.20
2015,06,15,09,04,18.20
2015,06,15,09,05,18.20
2015,06,15,09,06,18.20
2015,06,15,09,07,18.20
2015,06,15,09,08,18.20
2015,06,15,09,09,18.30
2015,06,15,09,10,18.40
2015,06,15,09,11,18.50
2015,06,15,09,12,18.50
2015,06,15,09,13,18.50
2015,06,15,09,14,18.60
2015,06,15,09,15,18.70
2015,06,15,09,16,18.90
2015,06,15,09,17,18.90
2015,06,15,09,18,19.00
2015,06,15,09,19,19.10
2015,06,15,09,20,19.10
2015,06,15,09,21,19.10
2015,06,15,09,22,19.10
2015,06,15,09,23,19.10
2015,06,15,09,24,19.10
2015,06,15,09,25,19.10
2015,06,15,09,26,19.20
2015,06,15,09,27,19.20
2015,06,15,09,28,19.30
2015,06,15,09,29,19.40
2015,06,15,09,30,19.40
2015,06,15,09,31,19.50
2015,06,15,09,32,19.60
2015,06,15,09,33,19.60
2015,06,15,09,34,19.70
2015,06,15,09,35,19.70
2015,06,15,09,36,19.70
2015,06,15,09,37,19.60
2015,06,15,09,38,19.70
2015,06,15,09,39,19.70
2015,06,15,09,40,19.80
2015,06,15,09,41,19.80
2015,06,15,09,42,19.70
2015,06,15,09,43,19.70
2015,06,15,09,44,19.70
2015,06,15,09,45,19.70
2015,06,15,09,46,19.70
2015,06,15,09,47,19.70
2015,06,15,09,48,19.90
2015,06,15,09,49,19.90
2015,06,15,09,50,19.90
2015,06,15,09,51,19.90
2015,06,15,09,52,19.90
2015,06,15,09,53,19.90
2015,06,15,09,54,19.90
2015,06,15,09,55,19.80
2015,06,15,09,56,19.70
2015,06,15,09,57,19.60
2015,06,15,09,58,19.60
2015,06,15,09,59,19.60
2015,06,15,10,00,19.50
2015,06,15,10,01,19.50
2015,06,15,10,02,19.60
2015,06,15,10,03,19.60
2015,06,15,10,04,19.60
2015,06,15,10,05,19.60
2015,06,15,10,06,19.60
2015,06,15,10,07,19.60
2015,06,15,10,08,19.60
2015,06,15,10,09,19.60
2015,06,15,10,10,19.70
2015,06,15,10,11,19.70
2015,06,15,10,12,19.70
2015,06,15,10,13,19.70
2015,06,15,10,14,19.60
2015,06,15,10,15,19.60
2015,06,15,10,16,19.60
2015,06,15,10,17,19.60
2015,06,15,10,18,19.50
2015,06,15,10,19,19.50
2015,06,15,10,20,19.50
2015,06,15,10,21,19.50
2015,06,15,10,22,19.50
2015,06,15,10,23,19.60
2015,06,15,10,24,19.60
2015,06,15,10,25,19.70
2015,06,15,10,26,19.90
2015,06,15,10,27,20.00
2015,06,15,10,28,20.20
2015,06,15,10,29,20.40
2015,06,15,10,30,20.60
2015,06,15,10,31,20.80
2015,06,15,10,32,20.90
2015,06,15,10,33,20.80
2015,06,15,10,34,20.60
2015,06,15,10,35,20.30
2015,06,15,10,36,20.20
2015,06,15,10,37,20.20
2015,06,15,10,38,20.20
2015,06,15,10,39,20.20
2015,06,15,10,40,20.20
2015,06,15,10,41,20.10
2015,06,15,10,42,20.10
2015,06,15,10,43,20.20
2015,06,15,10,44,20.20
2015,06,15,10,45,20.20
2015,06,15,10,46,20.20
2015,06,15,10,47,20.20
2015,06,15,10,48,20.30
2015,06,15,10,49,20.30
2015,06,15,10,50,20.30
2015,06,15,10,51,20.20
2015,06,15,10,52,20.20
2015,06,15,10,53,20.20
2015,06,15,10,54,20.20
2015,06,15,10,55,20.30
2015,06,15,10,56,20.30
2015,06,15,10,57,20.40
2015,06,15,10,58,20.50
2015,06,15,10,59,20.50
2015,06,15,11,00,20.50
2015,06,15,11,01,20.30
2015,06,15,11,02,20.20
2015,06,15,11,03,20.20
2015,06,15,11,04,20.20
2015,06,15,11,05,20.30
2015,06,15,11,06,20.30
2015,06,15,11,07,20.30
2015,06,15,11,08,20.40
2015,06,15,11,09,20.50
2015,06,15,11,10,20.60
2015,06,15,11,11,20.60
2015,06,15,11,12,20.60
2015,06,15,11,13,20.50
2015,06,15,11,14,20.40
2015,06,15,11,15,20.30
2015,06,15,11,16,20.30
2015,06,15,11,17,20.30
2015,06,15,11,18,20.40
2015,06,15,11,19,20.50
2015,06,15,11,20,20.60
2015,06,15,11,21,20.70
2015,06,15,11,22,20.70
2015,06,15,11,23,20.80
2015,06,15,11,24,20.90
2015,06,15,11,25,20.90
2015,06,15,11,26,20.80
2015,06,15,11,27,20.70
2015,06,15,11,28,20.50
2015,06,15,11,29,20.40
2015,06,15,11,30,20.30
2015,06,15,11,31,20.40
2015,06,15,11,32,20.50
2015,06,15,11,33,20.50
2015,06,15,11,34,20.60
2015,06,15,11,35,20.70
2015,06,15,11,36,20.70
2015,06,15,11,37,20.70
2015,06,15,11,38,20.70
2015,06,15,11,39,20.80
2015,06,15,11,40,20.90
2015,06,15,11,41,20.90
2015,06,15,11,42,20.90
2015,06,15,11,43,20.90
2015,06,15,11,44,20.90
2015,06,15,11,45,20.80
2015,06,15,11,46,20.80
2015,06,15,11,47,20.90
2015,06,15,11,48,21.00
2015,06,15,11,49,21.10
2015,06,15,11,50,21.20
2015,06,15,11,51,21.30
2015,06,15,11,52,21.30
2015,06,15,11,53,21.30
2015,06,15,11,54,21.20
2015,06,15,11,55,21.20
2015,06,15,11,56,21.30
2015,06,15,11,57,21.30
2015,06,15,11,58,21.40
2015,06,15,11,59,21.60
2015,06,15,12,00,21.60
2015,06,15,12,01,21.60
2015,06,15,12,02,21.60
2015,06,15,12,03,21.60
2015,06,15,12,04,21.70
2015,06,15,12,05,21.80
2015,06,15,12,06,21.90
2015,06,15,12,07,22.00
2015,06,15,12,08,22.10
2015,06,15,12,09,22.20
2015,06,15,12,10,22.10
2015,06,15,12,11,22.00
2015,06,15,12,12,22.00
2015,06,15,12,13,22.00
2015,06,15,12,14,22.00
2015,06,15,12,15,22.10
2015,06,15,12,16,22.10
2015,06,15,12,17,22.00
2015,06,15,12,18,22.00
2015,06,15,12,19,22.00
2015,06,15,12,20,21.80
2015,06,15,12,21,21.60
2015,06,15,12,22,21.60
2015,06,15,12,23,21.70
2015,06,15,12,24,21.90
2015,06,15,12,25,22.00
2015,06,15,12,26,22.20
2015,06,15,12,27,22.30
2015,06,15,12,28,22.30
2015,06,15,12,29,22.40
2015,06,15,12,30,22.50
2015,06,15,12,31,22.50
2015,06,15,12,32,22.40
2015,06,15,12,33,22.30
2015,06,15,12,34,22.30
2015,06,15,12,35,22.20
2015,06,15,12,36,22.10
2015,06,15,12,37,21.90
2015,06,15,12,38,21.80
2015,06,15,12,39,21.80
2015,06,15,12,40,21.80
2015,06,15,12,41,21.90
2015,06,15,12,42,22.00
2015,06,15,12,43,22.00
2015,06,15,12,44,22.00
2015,06,15,12,45,21.90
2015,06,15,12,46,22.00
2015,06,15,12,47,22.10
2015,06,15,12,48,22.20
2015,06,15,12,49,22.50
2015,06,15,12,50,22.70
2015,06,15,12,51,22.90
2015,06,15,12,52,23.10
2015,06,15,12,53,23.30
2015,06,15,12,54,23.50
2015,06,15,12,55,23.70
2015,06,15,12,56,23.80
2015,06,15,12,57,23.90
2015,06,15,12,58,24.00
2015,06,15,12,59,24.00
2015,06,15,13,00,23.90
2015,06,15,13,01,23.70
2015,06,15,13,02,23.70
2015,06,15,13,03,23.80
2015,06,15,13,04,23.80
2015,06,15,13,05,23.90
2015,06,15,13,06,23.90
2015,06,15,13,07,23.70
2015,06,15,13,08,23.60
2015,06,15,13,09,23.50
2015,06,15,13,10,23.30
2015,06,15,13,11,23.30
2015,06,15,13,12,23.40
2015,06,15,13,13,23.40
2015,06,15,13,14,23.40
2015,06,15,13,15,23.30
2015,06,15,13,16,23.30
2015,06,15,13,17,23.40
2015,06,15,13,18,23.60
2015,06,15,13,19,23.70
2015,06,15,13,20,23.80
2015,06,15,13,21,23.90
2015,06,15,13,22,23.90
2015,06,15,13,23,23.90
2015,06,15,13,24,23.90
2015,06,15,13,25,23.90
2015,06,15,13,26,24.00
2015,06,15,13,27,24.10
2015,06,15,13,28,24.20
2015,06,15,13,29,24.20
2015,06,15,13,30,24.30
2015,06,15,13,31,24.30
2015,06,15,13,32,24.30
2015,06,15,13,33,24.30
2015,06,15,13,34,24.30
2015,06,15,13,35,24.30
2015,06,15,13,36,24.30
2015,06,15,13,37,24.30
2015,06,15,13,38,24.20
2015,06,15,13,39,24.10
2015,06,15,13,40,24.10
2015,06,15,13,41,24.20
2015,06,15,13,42,24.20
2015,06,15,13,43,24.10
2015,06,15,13,44,24.00
2015,06,15,13,45,23.90
2015,06,15,13,46,23.80
2015,06,15,13,47,23.70
2015,06,15,13,48,23.70
2015,06,15,13,49,23.70
2015,06,15,13,50,23.80
2015,06,15,13,51,23.90
2015,06,15,13,52,24.00
2015,06,15,13,53,24.10
2015,06,15,13,54,24.10
2015,06,15,13,55,24.10
2015,06,15,13,56,24.10
2015,06,15,13,57,24.10
2015,06,15,13,58,24.10
2015,06,15,13,59,24.30
2015,06,15,14,00,24.40
2015,06,15,14,01,24.50
2015,06,15,14,02,24.50
2015,06,15,14,03,24.60
2015,06,15,14,04,24.70
2015,06,15,14,05,24.80
2015,06,15,14,06,24.80
2015,06,15,14,07,24.80
2015,06,15,14,08,24.70
2015,06,15,14,09,24.70
2015,06,15,14,10,24.70
2015,06,15,14,11,24.70
2015,06,15,14,12,24.80
2015,06,15,14,13,24.80
2015,06,15,14,14,24.80
2015,06,15,14,15,24.90
2015,06,15,14,16,24.90
2015,06,15,14,17,24.90
2015,06,15,14,18,24.90
2015,06,15,14,19,24.80
2015,06,15,14,20,24.70
2015,06,15,14,21,24.70
2015,06,15,14,22,24.70
2015,06,15,14,23,24.60
2015,06,15,14,24,24.60
2015,06,15,14,25,24.60
2015,06,15,14,26,24.60
2015,06,15,14,27,24.60
2015,06,15,14,28,24.70
2015,06,15,14,29,24.70
2015,06,15,14,30,24.80
2015,06,15,14,31,24.80
2015,06,15,14,32,24.90
2015,06,15,14,33,24.90
2015,06,15,14,34,24.90
2015,06,15,14,35,24.80
2015,06,15,14,36,24.80
2015,06,15,14,37,24.80
2015,06,15,14,38,24.70
2015,06,15,14,39,24.80
2015,06,15,14,40,24.80
2015,06,15,14,41,24.90
2015,06,15,14,42,24.90
2015,06,15,14,43,25.00
2015,06,15,14,44,25.20
2015,06,15,14,45,25.20
2015,06,15,14,46,25.30
2015,06,15,14,47,25.30
2015,06,15,14,48,25.30
2015,06,15,14,49,25.30
2015,06,15,14,50,25.20
2015,06,15,14,51,25.10
2015,06,15,14,52,25.00
2015,06,15,14,53,24.90
2015,06,15,14,54,24.90
2015,06,15,14,55,24.80
2015,06,15,14,56,24.70
2015,06,15,14,57,24.60
2015,06,15,14,58,24.50
2015,06,15,14,59,24.50
2015,06,15,15,00,24.50
2015,06,15,15,01,24.40
2015,06,15,15,02,24.40
2015,06,15,15,03,24.30
2015,06,15,15,04,24.30
2015,06,15,15,05,24.40
2015,06,15,15,06,24.50
2015,06,15,15,07,24.50
2015,06,15,15,08,24.60
2015,06,15,15,09,24.60
2015,06,15,15,10,24.60
2015,06,15,15,11,24.60
2015,06,15,15,12,24.60
2015,06,15,15,13,24.50
2015,06,15,15,14,24.50
2015,06,15,15,15,24.40
2015,06,15,15,16,24.30
2015,06,15,15,17,24.30
2015,06,15,15,18,24.20
2015,06,15,15,19,24.10
2015,06,15,15,20,24.10
2015,06,15,15,21,24.10
2015,06,15,15,22,24.10
2015,06,15,15,23,24.20
2015,06,15,15,24,24.20
2015,06,15,15,25,24.20
2015,06,15,15,26,24.20
2015,06,15,15,27,24.10
2015,06,15,15,28,24.20
2015,06,15,15,29,24.30
2015,06,15,15,30,24.30
2015,06,15,15,31,24.40
2015,06,15,15,32,24.50
2015,06,15,15,33,24.50
2015,06,15,15,34,24.50
2015,06,15,15,35,24.50
2015,06,15,15,36,24.40
2015,06,15,15,37,24.40
2015,06,15,15,38,24.40
2015,06,15,15,39,24.50
2015,06,15,15,40,24.60
2015,06,15,15,41,24.70
2015,06,15,15,42,24.80
2015,06,15,15,43,24.80
2015,06,15,15,44,24.80
2015,06,15,15,45,24.80
2015,06,15,15,46,24.80
2015,06,15,15,47,24.80
2015,06,15,15,48,24.80
2015,06,15,15,49,24.80
2015,06,15,15,50,24.80
2015,06,15,15,51,24.80
2015,06,15,15,52,24.70
2015,06,15,15,53,24.70
2015,06,15,15,54,24.60
2015,06,15,15,55,24.50
2015,06,15,15,56,24.50
2015,06,15,15,57,24.50
2015,06,15,15,58,24.50
2015,06,15,15,59,24.50
2015,06,15,16,00,24.50
2015,06,15,16,01,24.50
2015,06,15,16,02,24.60
2015,06,15,16,03,24.70
2015,06,15,16,04,24.70
2015,06,15,16,05,24.70
2015,06,15,16,06,24.80
2015,06,15,16,07,24.80
2015,06,15,16,08,24.90
2015,06,15,16,09,25.00
2015,06,15,16,10,25.00
2015,06,15,16,11,24.90
2015,06,15,16,12,24.90
2015,06,15,16,13,25.00
2015,06,15,16,14,24.90
2015,06,15,16,15,24.90
2015,06,15,16,16,24.90
2015,06,15,16,17,24.90
2015,06,15,16,18,24.90
2015,06,15,16,19,24.90
2015,06,15,16,20,24.90
2015,06,15,16,21,24.90
2015,06,15,16,22,24.90
2015,06,15,16,23,24.80
2015,06,15,16,24,24.70
2015,06,15,16,25,24.70
2015,06,15,16,26,24.70
2015,06,15,16,27,24.70
2015,06,15,16,28,24.80
2015,06,15,16,29,24.80
2015,06,15,16,30,24.90
2015,06,15,16,31,24.90
2015,06,15,16,32,24.90
2015,06,15,16,33,24.90
2015,06,15,16,34,24.80
2015,06,15,16,35,24.80
2015,06,15,16,36,24.80
2015,06,15,16,37,24.80
2015,06,15,16,38,24.80
2015,06,15,16,39,24.80
2015,06,15,16,40,24.80
2015,06,15,16,41,24.80
2015,06,15,16,42,24.90
2015,06,15,16,43,24.80
2015,06,15,16,44,24.70
2015,06,15,16,45,24.70
2015,06,15,16,46,24.60
2015,06,15,16,47,24.60
2015,06,15,16,48,24.70
2015,06,15,16,49,24.70
2015,06,15,16,50,24.70
2015,06,15,16,51,24.70
2015,06,15,16,52,24.70
2015,06,15,16,53,24.70
2015,06,15,16,54,24.70
2015,06,15,16,55,24.50
2015,06,15,16,56,24.50
2015,06,15,16,57,24.50
2015,06,15,16,58,24.50
2015,06,15,16,59,24.50
2015,06,15,17,00,24.40
2015,06,15,17,01,24.40
2015,06,15,17,02,24.40
2015,06,15,17,03,24.30
2015,06,15,17,04,24.30
2015,06,15,17,05,24.30
2015,06,15,17,06,24.30
2015,06,15,17,07,24.30
2015,06,15,17,08,24.40
2015,06,15,17,09,24.40
2015,06,15,17,10,24.50
2015,06,15,17,11,24.50
2015,06,15,17,12,24.50
2015,06,15,17,13,24.50
2015,06,15,17,14,24.60
2015,06,15,17,15,24.60
2015,06,15,17,16,24.60
2015,06,15,17,17,24.60
2015,06,15,17,18,24.40
2015,06,15,17,19,24.20